Weather History for Andover, NJ

Change the Weather History Date:

Monday, February 18, 2013

  Actual Average (KFWN) Record (KFWN)
Temperature  
Mean Temperature 24 °F -  
Max Temperature 35 °F 36 °F 64 °F (2011)
Min Temperature 14 °F 15 °F -18 °F (1979)
Degree Days  
Heating Degree Days 40    
Moisture  
Dew Point 5 °F    
Average Humidity 45    
Maximum Humidity 56    
Minimum Humidity 26    
Precipitation  
Precipitation 0.00 in - - ()
Sea Level Pressure  
Sea Level Pressure 30.21 in    
Wind  
Wind Speed 7 mph (NW)    
Max Wind Speed 15 mph    
Max Gust Speed 30 mph    
Averages and records for this station are not official NWS values.
T = Trace of Precipitation, MM = Missing Value Source: NWS Daily Summary

Daily Weather History Graph

Daily Weather History Graph

Search for Another Location

Airport:

Trip Planner

Search our weather history database for the weather conditions in past years. The results will help you decide how hot, cold, wet, or windy it might be!

Date:

Astronomy

Feb. 18, 2013 Rise Set
Actual Time 6:48 AM EST 5:37 PM EST
Civil Twilight 6:20 AM EST 6:05 PM EST
Nautical Twilight 5:48 AM EST 6:37 PM EST
Astronomical Twilight 5:17 AM EST 7:09 PM EST
Moon 11:20 AM EST (2/18) 1:27 AM EST (2/18)
Length of Visible Light 11h 44m
Length of Day
10h 48m
First Quarter, 58% of the Moon is Illuminated
Feb 18
First Quarter
Feb 25
Full
Mar 4
Last Quarter
Mar 11
New
Mar 19
First Quarter

Hourly Weather History & Observations

Time (EST) Temp. Windchill Dew Point Humidity Pressure Visibility Wind Dir Wind Speed Gust Speed Precip Events Conditions
12:54 AM 16.0 °F 1.1 °F -0.9 °F 47% 30.09 in - NNW 15.0 mph 29.9 mph N/A   Unknown
1:54 AM 15.1 °F 5.2 °F -0.0 °F 51% 30.10 in - Variable 6.9 mph - N/A   Unknown
2:54 AM 15.1 °F 4.2 °F 1.0 °F 54% 30.12 in - WNW 8.1 mph - N/A   Unknown
3:54 AM 14.0 °F 3.9 °F 1.0 °F 56% 30.14 in - Variable 6.9 mph - N/A   Unknown
4:54 AM 14.0 °F - 1.0 °F 56% 30.17 in - Calm Calm - N/A   Unknown
5:54 AM 14.0 °F 8.2 °F 1.0 °F 56% 30.21 in - Variable 3.5 mph - N/A   Unknown
6:54 AM 14.0 °F 5.1 °F 1.0 °F 56% 30.25 in - WNW 5.8 mph - N/A   Unknown
7:54 AM 15.1 °F 4.2 °F 1.9 °F 56% 30.27 in - NNW 8.1 mph - N/A   Unknown
8:54 AM 19.0 °F 8.2 °F 3.0 °F 50% 30.28 in - NW 9.2 mph - N/A   Unknown
9:54 AM 21.9 °F 11.7 °F 3.0 °F 44% 30.29 in - NNW 9.2 mph - N/A   Unknown
10:54 AM 24.1 °F 15.2 °F 3.0 °F 40% 30.29 in - North 8.1 mph - N/A   Unknown
11:54 AM 26.1 °F 18.4 °F 3.9 °F 39% 30.28 in - North 6.9 mph - N/A   Unknown
12:54 PM 28.9 °F 21.1 °F 3.9 °F 35% 30.25 in - WNW 8.1 mph - N/A   Unknown
1:54 PM 32.0 °F 26.4 °F 5.0 °F 32% 30.22 in - Variable 5.8 mph - N/A   Unknown
2:54 PM 33.1 °F 26.1 °F 3.0 °F 28% 30.21 in - NW 8.1 mph - N/A   Unknown
3:54 PM 35.1 °F 30.1 °F 3.0 °F 26% 30.21 in - West 5.8 mph - N/A   Unknown
4:54 PM 34.0 °F 28.0 °F 5.0 °F 30% 30.21 in - Variable 6.9 mph - N/A   Unknown
5:54 PM 30.9 °F - 7.0 °F 37% 30.22 in - Calm Calm - N/A   Unknown
6:54 PM 28.9 °F - 10.9 °F 47% 30.23 in - Calm Calm - N/A   Unknown
7:54 PM 28.0 °F 24.2 °F 12.0 °F 51% 30.24 in - South 3.5 mph - N/A   Unknown
8:54 PM 28.9 °F - 10.9 °F 47% 30.22 in - Calm Calm - N/A   Unknown
9:54 PM 28.9 °F - 12.0 °F 49% 30.22 in - Calm Calm - N/A   Unknown
10:54 PM 28.9 °F - 12.9 °F 51% 30.21 in - Calm Calm - N/A   Unknown
11:54 PM 28.9 °F - 12.9 °F 51% 30.19 in - Calm Calm - N/A   Unknown